When you browse on this site, cookies collect data to enhance your experience and personalize the content and advertising you see.
Visit our Privacy Policy to learn more. By continuing to use the site, you agree to this use of cookies and data.
  • In Romania
  • List of Countries
  • For 7 days
  • Water Temperature
  • Satellite Maps
  • Weather Map
  • Weather Widgets
  • user-avatar
    Login

    Hourly Weather Kumagorsk

    Today, 16 January, Wednesday

    Time Temperature Precipitation Wind Pressure Humidity
    00:00 -1°C° 0 mm 3 mps 717 mmHg 84%
    01:00 -1°C° 0 mm 2 mps 716 mmHg 81%
    02:00 -1°C° 0 mm 2 mps 716 mmHg 78%
    03:00 0°C° 0 mm 0 mps 716 mmHg 82%
    04:00 0°C° 0 mm 0 mps 716 mmHg 78%
    05:00 +1°C° 0 mm 0 mps 716 mmHg 74%
    06:00 +2°C° 0 mm 0 mps 716 mmHg 70%
    07:00 +4°C° 0 mm 1 mps 716 mmHg 67%
    08:00 +4°C° 0 mm 1 mps 716 mmHg 63%
    09:00 +6°C° 0 mm 1 mps 715 mmHg 58%
    10:00 +5°C° 0 mm 2 mps 716 mmHg 58%
    11:00 +5°C° 0 mm 3 mps 717 mmHg 58%
    12:00 +6°C° 0 mm 5 mps 717 mmHg 58%
    13:00 +4°C° 0 mm 6 mps 718 mmHg 65%
    14:00 +2°C° 0 mm 7 mps 719 mmHg 72%
    15:00 -1°C° 0 mm 8 mps 719 mmHg 78%
    16:00 -1°C° 0 mm 7 mps 720 mmHg 79%
    17:00 -2°C° 0 mm 6 mps 721 mmHg 79%
    18:00 -2°C° 0 mm 5 mps 722 mmHg 79%
    19:00 -2°C° 0 mm 5 mps 722 mmHg 78%
    20:00 -4°C° 0 mm 5 mps 722 mmHg 77%
    21:00 -3°C° 0 mm 4 mps 723 mmHg 77%
    22:00 -3°C° 0 mm 4 mps 723 mmHg 76%
    23:00 -2°C° 0 mm 3 mps 724 mmHg 75%

    Tomorrow, 17 January, Thursday

    Time Temperature Precipitation Wind Pressure Humidity
    00:00 -2°C° 0 mm 3 mps 724 mmHg 74%
    01:00 -2°C° 0 mm 3 mps 724 mmHg 74%
    02:00 -2°C° 0 mm 2 mps 725 mmHg 74%
    03:00 -2°C° 0 mm 2 mps 725 mmHg 75%
    04:00 -2°C° 0 mm 2 mps 726 mmHg 75%
    05:00 0°C° 0 mm 1 mps 726 mmHg 75%
    06:00 -1°C° 0 mm 1 mps 726 mmHg 76%
    07:00 0°C° 0 mm 1 mps 727 mmHg 75%
    08:00 -1°C° 0 mm 0 mps 728 mmHg 74%
    09:00 -1°C° 0 mm 0 mps 728 mmHg 74%
    10:00 -1°C° 0 mm 0 mps 728 mmHg 71%
    11:00 +1°C° 0 mm 1 mps 729 mmHg 68%
    12:00 +1°C° 0 mm 1 mps 729 mmHg 65%
    13:00 +1°C° 0 mm 1 mps 729 mmHg 65%
    14:00 +2°C° 0 mm 1 mps 729 mmHg 64%
    15:00 +2°C° 0 mm 1 mps 729 mmHg 64%
    16:00 +1°C° 0 mm 1 mps 730 mmHg 69%
    17:00 0°C° 0 mm 1 mps 730 mmHg 75%
    18:00 -3°C° 0 mm 2 mps 731 mmHg 80%
    19:00 -1°C° 0 mm 1 mps 731 mmHg 81%
    20:00 -1°C° 0 mm 1 mps 732 mmHg 82%
    21:00 -1°C° 0 mm 1 mps 732 mmHg 83%
    22:00 -1°C° 0 mm 1 mps 732 mmHg 81%
    23:00 -2°C° 0 mm 0 mps 733 mmHg 78%

    Day after tomorrow, 18 January, Friday

    Time Temperature Precipitation Wind Pressure Humidity
    00:00 -2°C° 0 mm 0 mps 733 mmHg 76%
    01:00 -1°C° 0 mm 0 mps 733 mmHg 74%
    02:00 -1°C° 0 mm 0 mps 733 mmHg 71%
    03:00 -1°C° 0 mm 0 mps 733 mmHg 69%
    04:00 -1°C° 0 mm 0 mps 733 mmHg 66%
    05:00 -1°C° 0 mm 0 mps 733 mmHg 63%
    06:00 -1°C° 0 mm 0 mps 733 mmHg 59%
    07:00 0°C° 0 mm 1 mps 734 mmHg 56%
    08:00 +1°C° 0 mm 1 mps 734 mmHg 52%
    09:00 +1°C° 0 mm 1 mps 734 mmHg 49%
    10:00 +3°C° 0 mm 1 mps 734 mmHg 45%
    11:00 +3°C° 0 mm 0 mps 733 mmHg 42%
    12:00 +4°C° 0 mm 0 mps 733 mmHg 39%
    13:00 +5°C° 0 mm 1 mps 732 mmHg 41%
    14:00 +5°C° 0 mm 1 mps 732 mmHg 44%
    15:00 +5°C° 0 mm 1 mps 732 mmHg 47%
    16:00 +4°C° 0 mm 1 mps 732 mmHg 52%
    17:00 +2°C° 0 mm 1 mps 732 mmHg 57%
    18:00 -1°C° 0 mm 2 mps 733 mmHg 62%
    19:00 +1°C° 0 mm 1 mps 733 mmHg 61%
    20:00 +1°C° 0 mm 1 mps 733 mmHg 60%
    21:00 +1°C° 0 mm 1 mps 733 mmHg 59%
    22:00 +1°C° 0 mm 1 mps 732 mmHg 57%
    23:00 +1°C° 0 mm 1 mps 732 mmHg 54%

    19 January, Saturday

    Time Temperature Precipitation Wind Pressure Humidity
    00:00 +1°C° 0 mm 1 mps 732 mmHg 52%
    01:00 +1°C° 0 mm 1 mps 732 mmHg 49%
    02:00 +1°C° 0 mm 1 mps 732 mmHg 46%
    03:00 +2°C° 0 mm 1 mps 732 mmHg 43%
    04:00 +2°C° 0 mm 1 mps 732 mmHg 41%
    05:00 +2°C° 0 mm 1 mps 732 mmHg 39%
    06:00 +2°C° 0 mm 1 mps 732 mmHg 37%
    07:00 +2°C° 0 mm 1 mps 732 mmHg 35%
    08:00 +3°C° 0 mm 1 mps 733 mmHg 34%
    09:00 +3°C° 0 mm 1 mps 733 mmHg 33%
    10:00 +5°C° 0 mm 1 mps 733 mmHg 31%
    11:00 +6°C° 0 mm 1 mps 733 mmHg 30%
    12:00 +8°C° 0 mm 1 mps 733 mmHg 28%
    13:00 +7°C° 0 mm 1 mps 733 mmHg 34%
    14:00 +7°C° 0 mm 1 mps 732 mmHg 40%
    15:00 +7°C° 0 mm 1 mps 732 mmHg 46%
    16:00 +6°C° 0 mm 1 mps 732 mmHg 51%
    17:00 +4°C° 0 mm 1 mps 733 mmHg 57%
    18:00 +2°C° 0 mm 0 mps 733 mmHg 62%
    19:00 +3°C° 0 mm 1 mps 733 mmHg 63%
    20:00 +2°C° 0 mm 1 mps 733 mmHg 63%
    21:00 +2°C° 0 mm 1 mps 733 mmHg 64%
    22:00 +2°C° 0 mm 1 mps 733 mmHg 63%
    23:00 +2°C° 0 mm 1 mps 734 mmHg 61%

    20 January, Sunday

    Time Temperature Precipitation Wind Pressure Humidity
    00:00 +2°C° 0 mm 1 mps 734 mmHg 60%
    01:00 +2°C° 0 mm 1 mps 734 mmHg 61%
    02:00 +1°C° 0 mm 0 mps 734 mmHg 61%
    03:00 +1°C° 0 mm 0 mps 734 mmHg 62%
    04:00 +1°C° 0 mm 0 mps 734 mmHg 65%
    05:00 +2°C° 0 mm 1 mps 734 mmHg 68%
    06:00 +1°C° 0 mm 1 mps 734 mmHg 70%
    07:00 +2°C° 0 mm 1 mps 734 mmHg 70%
    08:00 +1°C° 0 mm 2 mps 734 mmHg 70%
    09:00 +1°C° 0 mm 2 mps 734 mmHg 70%
    10:00 +2°C° 0 mm 2 mps 734 mmHg 64%
    11:00 +3°C° 0 mm 2 mps 734 mmHg 58%
    12:00 +4°C° 0 mm 2 mps 733 mmHg 51%
    13:00 +4°C° 0 mm 2 mps 733 mmHg 53%
    14:00 +4°C° 0 mm 2 mps 733 mmHg 54%
    15:00 +5°C° 0 mm 2 mps 733 mmHg 56%
    16:00 +4°C° 0 mm 2 mps 733 mmHg 63%
    17:00 +3°C° 0 mm 2 mps 733 mmHg 70%
    18:00 +2°C° 0 mm 2 mps 733 mmHg 77%
    19:00 +1°C° 0 mm 2 mps 733 mmHg 79%
    20:00 +1°C° 0 mm 2 mps 733 mmHg 82%
    21:00 -1°C° 0 mm 2 mps 733 mmHg 84%
    22:00 -1°C° 0 mm 2 mps 733 mmHg 84%
    23:00 -1°C° 0 mm 2 mps 733 mmHg 83%

    21 January, Monday

    Time Temperature Precipitation Wind Pressure Humidity
    00:00 -1°C° 0 mm 2 mps 733 mmHg 83%
    01:00 -1°C° 0 mm 2 mps 732 mmHg 83%
    02:00 +1°C° 0 mm 1 mps 732 mmHg 83%
    03:00 +1°C° 0 mm 1 mps 732 mmHg 83%
    04:00 -1°C° 0 mm 2 mps 732 mmHg 83%
    05:00 -1°C° 0 mm 2 mps 732 mmHg 83%
    06:00 -2°C° 0 mm 2 mps 731 mmHg 83%
    07:00 -1°C° 0 mm 2 mps 731 mmHg 80%
    08:00 -1°C° 0 mm 2 mps 731 mmHg 77%
    09:00 +1°C° 0 mm 2 mps 731 mmHg 74%
    10:00 +2°C° 0 mm 2 mps 731 mmHg 68%
    11:00 +3°C° 0 mm 2 mps 730 mmHg 61%
    12:00 +5°C° 0 mm 2 mps 730 mmHg 54%
    13:00 +5°C° 0 mm 2 mps 729 mmHg 55%
    14:00 +5°C° 0 mm 2 mps 729 mmHg 55%
    15:00 +5°C° 0 mm 2 mps 729 mmHg 56%
    16:00 +4°C° 0 mm 2 mps 729 mmHg 62%
    17:00 +3°C° 0 mm 2 mps 729 mmHg 68%
    18:00 +3°C° 0 mm 1 mps 729 mmHg 73%
    19:00 +3°C° 0 mm 1 mps 729 mmHg 71%
    20:00 +3°C° 0 mm 1 mps 729 mmHg 69%
    21:00 +3°C° 0 mm 1 mps 729 mmHg 67%
    22:00 +3°C° 0 mm 1 mps 728 mmHg 64%
    23:00 +3°C° 0 mm 1 mps 728 mmHg 61%
    Show more